When you browse on this site, cookies collect data to enhance your experience and personalize the content and advertising you see.
Visit our Privacy Policy to learn more. By continuing to use the site, you agree to this use of cookies and data.
  • In Hungary
  • List of Countries
  • For 7 days
  • Water Temperature
  • Satellite Maps
  • Weather Map
  • News
  • Weather Widgets
  • user-avatar
    Login

    Hourly Weather Jedlina-Zdroj

    Today, 22 April, Monday

    Time Temperature Precipitation Wind Pressure Humidity
    00:00 +8°C° 0 mm 1 mps 716 mmHg 68%
    01:00 +8°C° 0 mm 1 mps 716 mmHg 65%
    02:00 +7°C° 0 mm 1 mps 716 mmHg 70%
    03:00 +6°C° 0 mm 1 mps 716 mmHg 75%
    04:00 +5°C° 0 mm 1 mps 715 mmHg 80%
    05:00 +6°C° 0 mm 1 mps 715 mmHg 79%
    06:00 +5°C° 0 mm 2 mps 716 mmHg 79%
    07:00 +6°C° 0 mm 2 mps 716 mmHg 79%
    08:00 +7°C° 0 mm 3 mps 716 mmHg 72%
    09:00 +7°C° 0 mm 4 mps 716 mmHg 66%
    10:00 +8°C° 0 mm 5 mps 716 mmHg 59%
    11:00 +9°C° 0 mm 5 mps 716 mmHg 57%
    12:00 +10°C° 0 mm 5 mps 715 mmHg 56%
    13:00 +10°C° 0 mm 6 mps 715 mmHg 54%
    14:00 +11°C° 0 mm 6 mps 715 mmHg 52%
    15:00 +12°C° 0 mm 5 mps 715 mmHg 51%
    16:00 +13°C° 0 mm 5 mps 715 mmHg 50%
    17:00 +12°C° 0 mm 5 mps 714 mmHg 56%
    18:00 +10°C° 0 mm 5 mps 714 mmHg 62%
    19:00 +10°C° 0 mm 4 mps 714 mmHg 68%
    20:00 +8°C° 0 mm 4 mps 714 mmHg 69%
    21:00 +8°C° 0 mm 4 mps 714 mmHg 70%
    22:00 +7°C° 0 mm 4 mps 714 mmHg 72%
    23:00 +6°C° 0 mm 4 mps 713 mmHg 75%

    Tomorrow, 23 April, Tuesday

    Time Temperature Precipitation Wind Pressure Humidity
    00:00 +5°C° 0 mm 3 mps 713 mmHg 79%
    01:00 +5°C° 0 mm 3 mps 713 mmHg 83%
    02:00 +5°C° 0 mm 2 mps 713 mmHg 85%
    03:00 +5°C° 0 mm 2 mps 712 mmHg 87%
    04:00 +4°C° 0 mm 2 mps 712 mmHg 89%
    05:00 +4°C° 0.1 mm 3 mps 712 mmHg 86%
    06:00 +7°C° 0.1 mm 3 mps 712 mmHg 84%
    07:00 +7°C° 0.1 mm 4 mps 712 mmHg 81%
    08:00 +8°C° 0.1 mm 5 mps 712 mmHg 80%
    09:00 +9°C° 0.1 mm 5 mps 712 mmHg 78%
    10:00 +10°C° 0.1 mm 6 mps 712 mmHg 76%
    11:00 +11°C° 0 mm 7 mps 712 mmHg 72%
    12:00 +12°C° 0 mm 7 mps 712 mmHg 68%
    13:00 +12°C° 0 mm 8 mps 712 mmHg 64%
    14:00 +12°C° 0.1 mm 8 mps 712 mmHg 66%
    15:00 +11°C° 0.1 mm 7 mps 712 mmHg 68%
    16:00 +11°C° 0.1 mm 7 mps 711 mmHg 70%
    17:00 +10°C° 0.3 mm 6 mps 711 mmHg 75%
    18:00 +8°C° 0.3 mm 5 mps 711 mmHg 81%
    19:00 +7°C° 0.3 mm 4 mps 711 mmHg 86%
    20:00 +7°C° 0.3 mm 4 mps 711 mmHg 88%
    21:00 +7°C° 0.3 mm 4 mps 711 mmHg 89%
    22:00 +8°C° 0.3 mm 3 mps 711 mmHg 91%
    23:00 +8°C° 0 mm 3 mps 710 mmHg 91%

    Day after tomorrow, 24 April, Wednesday

    Time Temperature Precipitation Wind Pressure Humidity
    00:00 +8°C° 0 mm 3 mps 710 mmHg 91%
    01:00 +7°C° 0 mm 3 mps 710 mmHg 92%
    02:00 +7°C° 0 mm 3 mps 710 mmHg 92%
    03:00 +7°C° 0 mm 3 mps 710 mmHg 93%
    04:00 +7°C° 0 mm 3 mps 710 mmHg 93%
    05:00 +8°C° 0 mm 3 mps 710 mmHg 91%
    06:00 +8°C° 0 mm 4 mps 710 mmHg 88%
    07:00 +10°C° 0 mm 4 mps 711 mmHg 86%
    08:00 +10°C° 0 mm 5 mps 711 mmHg 82%
    09:00 +12°C° 0 mm 5 mps 711 mmHg 78%
    10:00 +13°C° 0 mm 5 mps 711 mmHg 74%
    11:00 +14°C° 0 mm 6 mps 712 mmHg 74%
    12:00 +14°C° 0 mm 6 mps 712 mmHg 74%
    13:00 +14°C° 0 mm 6 mps 712 mmHg 73%
    14:00 +15°C° 0 mm 6 mps 712 mmHg 73%
    15:00 +15°C° 0 mm 6 mps 712 mmHg 72%
    16:00 +16°C° 0 mm 6 mps 712 mmHg 72%
    17:00 +15°C° 0 mm 5 mps 712 mmHg 77%
    18:00 +14°C° 0 mm 4 mps 712 mmHg 82%
    19:00 +13°C° 0 mm 3 mps 711 mmHg 87%
    20:00 +12°C° 0 mm 3 mps 711 mmHg 89%
    21:00 +11°C° 0 mm 3 mps 711 mmHg 91%
    22:00 +11°C° 0 mm 3 mps 711 mmHg 93%
    23:00 +11°C° 0 mm 3 mps 712 mmHg 93%

    25 April, Thursday

    Time Temperature Precipitation Wind Pressure Humidity
    00:00 +10°C° 0 mm 3 mps 712 mmHg 93%
    01:00 +10°C° 0 mm 3 mps 712 mmHg 94%
    02:00 +10°C° 0 mm 3 mps 712 mmHg 94%
    03:00 +10°C° 0 mm 2 mps 713 mmHg 94%
    04:00 +9°C° 0 mm 2 mps 713 mmHg 95%
    05:00 +10°C° 0 mm 2 mps 713 mmHg 92%
    06:00 +12°C° 0 mm 2 mps 714 mmHg 89%
    07:00 +13°C° 0 mm 1 mps 714 mmHg 86%
    08:00 +15°C° 0 mm 2 mps 715 mmHg 78%
    09:00 +17°C° 0 mm 2 mps 715 mmHg 69%
    10:00 +19°C° 0 mm 2 mps 716 mmHg 61%
    11:00 +20°C° 0 mm 2 mps 716 mmHg 59%
    12:00 +21°C° 0 mm 2 mps 715 mmHg 56%
    13:00 +22°C° 0 mm 3 mps 715 mmHg 54%
    14:00 +21°C° 0 mm 3 mps 715 mmHg 55%
    15:00 +21°C° 0 mm 3 mps 715 mmHg 56%
    16:00 +21°C° 0 mm 3 mps 715 mmHg 58%
    17:00 +19°C° 0 mm 3 mps 714 mmHg 65%
    18:00 +17°C° 0 mm 2 mps 714 mmHg 72%
    19:00 +16°C° 0 mm 1 mps 714 mmHg 80%
    20:00 +15°C° 0 mm 1 mps 713 mmHg 82%
    21:00 +14°C° 0 mm 1 mps 713 mmHg 85%
    22:00 +13°C° 0 mm 1 mps 713 mmHg 88%
    23:00 +13°C° 0 mm 1 mps 713 mmHg 89%

    26 April, Friday

    Time Temperature Precipitation Wind Pressure Humidity
    00:00 +13°C° 0 mm 1 mps 712 mmHg 90%
    01:00 +12°C° 0 mm 1 mps 712 mmHg 90%
    02:00 +12°C° 0 mm 1 mps 712 mmHg 91%
    03:00 +12°C° 0 mm 2 mps 711 mmHg 92%
    04:00 +10°C° 0 mm 2 mps 711 mmHg 93%
    05:00 +12°C° 0 mm 2 mps 711 mmHg 87%
    06:00 +12°C° 0 mm 3 mps 711 mmHg 82%
    07:00 +14°C° 0 mm 4 mps 711 mmHg 77%
    08:00 +15°C° 0 mm 4 mps 711 mmHg 72%
    09:00 +18°C° 0 mm 4 mps 711 mmHg 67%
    10:00 +19°C° 0 mm 4 mps 711 mmHg 62%
    11:00 +20°C° 0.6 mm 4 mps 711 mmHg 61%
    12:00 +21°C° 0.6 mm 4 mps 711 mmHg 60%
    13:00 +22°C° 0.6 mm 4 mps 711 mmHg 59%
    14:00 +20°C° 2.4 mm 4 mps 711 mmHg 66%
    15:00 +18°C° 2.4 mm 4 mps 711 mmHg 74%
    16:00 +17°C° 2.4 mm 4 mps 712 mmHg 81%
    17:00 +14°C° 0.4 mm 5 mps 712 mmHg 84%
    18:00 +12°C° 0.4 mm 5 mps 713 mmHg 87%
    19:00 +10°C° 0.4 mm 6 mps 713 mmHg 90%
    20:00 +9°C° 0 mm 5 mps 714 mmHg 89%
    21:00 +8°C° 0 mm 5 mps 715 mmHg 89%
    22:00 +7°C° 0 mm 5 mps 715 mmHg 88%
    23:00 +6°C° 0 mm 4 mps 716 mmHg 88%

    27 April, Saturday

    Time Temperature Precipitation Wind Pressure Humidity
    00:00 +6°C° 0 mm 4 mps 716 mmHg 87%
    01:00 +5°C° 0 mm 3 mps 716 mmHg 87%
    02:00 +5°C° 0 mm 3 mps 716 mmHg 88%
    03:00 +5°C° 0 mm 3 mps 717 mmHg 88%
    04:00 +6°C° 0 mm 2 mps 717 mmHg 88%
    05:00 +7°C° 0 mm 3 mps 717 mmHg 86%
    06:00 +8°C° 0 mm 3 mps 718 mmHg 83%
    07:00 +9°C° 0 mm 3 mps 718 mmHg 81%
    08:00 +10°C° 0 mm 4 mps 719 mmHg 73%
    09:00 +12°C° 0 mm 4 mps 719 mmHg 65%
    10:00 +13°C° 0 mm 4 mps 719 mmHg 58%
    11:00 +14°C° 0.1 mm 4 mps 719 mmHg 57%
    12:00 +14°C° 0.1 mm 4 mps 719 mmHg 56%
    13:00 +14°C° 0.1 mm 4 mps 719 mmHg 55%
    14:00 +14°C° 0.2 mm 4 mps 719 mmHg 55%
    15:00 +14°C° 0.2 mm 3 mps 719 mmHg 55%
    16:00 +14°C° 0.2 mm 3 mps 719 mmHg 55%
    17:00 +13°C° 0.1 mm 3 mps 719 mmHg 61%
    18:00 +12°C° 0.1 mm 2 mps 719 mmHg 67%
    19:00 +10°C° 0.1 mm 2 mps 719 mmHg 73%
    20:00 +9°C° 0 mm 2 mps 719 mmHg 74%
    21:00 +9°C° 0 mm 2 mps 719 mmHg 76%
    22:00 +8°C° 0 mm 2 mps 719 mmHg 77%
    23:00 +7°C° 0 mm 2 mps 719 mmHg 80%
    Show more